Wind_Speed
44 45 46 47 47 48 49 50 51 51 50 50 52 53 54 56 57 58 59 59 60 61 62 62 62 62 63 63 62 62 63 64 64 65 66 67 67 68
45 47 47 48 49 49 50 51 52 53 52 52 54 55 57 58 59 61 62 63 63 64 64 64 64 64 64 63 64 64 64 65 66 67 67 68 69 69
46 48 49 49 50 50 51 53 54 55 55 55 57 58 59 60 62 63 64 65 66 66 66 65 65 65 65 65 65 65 66 67 67 68 68 68 69 69
48 49 49 50 51 52 53 54 55 56 57 57 58 60 61 62 64 65 66 67 67 67 66 66 66 65 65 65 65 65 66 66 66 66 66 66 66 66
49 49 50 51 52 53 55 56 57 58 59 60 60 62 63 65 66 67 68 68 67 67 66 65 65 65 64 64 64 65 65 65 65 64 64 64 63 62
49 50 51 52 54 55 56 57 58 59 60 61 62 64 65 66 68 68 68 68 67 66 65 64 64 64 64 64 64 65 65 64 63 62 61 60 59 58
50 51 53 54 55 56 56 57 59 60 61 63 64 65 66 68 69 69 69 67 66 65 64 64 64 64 64 64 64 64 63 62 60 58 57 56 55 53
52 53 54 54 55 56 57 59 60 61 63 64 65 67 68 69 69 68 67 66 64 64 64 63 64 63 63 63 63 62 60 58 56 54 53 52 51 50
53 54 55 55 56 57 58 60 61 62 64 65 67 67 68 68 68 66 65 64 63 63 63 62 61 61 61 61 60 58 55 53 52 50 49 48 47 46
54 55 56 57 58 59 60 61 62 63 65 66 67 67 67 66 66 65 64 63 62 61 61 60 59 59 58 57 55 53 51 49 46 45 44 43 43 42
55 56 57 58 59 60 61 62 62 63 64 65 65 65 65 65 64 64 63 62 60 58 59 59 57 56 53 51 49 47 45 43 41 40 40 39 37 36
56 57 58 59 59 60 62 62 62 63 63 63 64 64 63 63 62 61 60 59 58 56 56 55 53 51 47 45 43 41 40 39 38 37 36 34 32 31
57 57 58 59 60 61 62 62 62 63 63 63 63 62 62 61 60 58 57 56 55 54 53 51 48 45 43 40 39 38 37 37 35 33 32 30 28 27
57 58 58 59 60 61 61 61 62 63 63 63 62 61 60 59 57 56 55 54 53 51 49 47 44 42 40 38 37 36 35 33 31 29 27 26 25 23
58 58 58 59 60 60 61 61 62 62 63 62 61 60 58 57 55 54 52 51 50 47 45 43 40 38 37 35 34 32 30 29 27 25 24 22 21 20
58 58 59 60 60 60 61 61 62 62 62 61 60 58 56 55 53 51 49 47 45 44 41 39 36 34 33 32 30 28 26 24 23 21 19 18 18 17
58 58 59 60 60 60 61 61 62 61 61 60 58 56 54 53 51 48 46 44 41 39 37 35 33 32 30 29 27 25 22 21 19 18 16 15 15 15
59 59 59 60 60 60 61 61 61 60 59 58 56 54 52 50 47 45 42 40 38 36 34 33 31 30 28 26 24 21 19 17 16 15 13 13 13 13
59 59 60 60 60 60 61 61 60 59 57 55 53 51 48 45 43 40 38 36 35 33 31 30 29 27 24 23 21 19 17 15 14 13 12 11 11 10
59 60 59 59 60 60 60 59 58 56 54 51 49 46 43 41 38 36 35 33 31 30 28 27 26 24 22 20 18 16 15 13 12 11 10 10 9 8
59 59 59 59 59 59 58 57 55 52 50 47 44 41 39 37 35 33 32 30 28 27 26 25 23 21 19 17 15 13 13 12 11 10 9 8 7 7
59 58 58 58 57 57 55 53 51 48 46 43 40 37 35 34 32 31 30 28 26 25 24 23 21 19 17 15 13 12 11 10 9 8 7 7 6 6
57 57 56 55 54 53 51 49 47 45 42 39 36 34 33 32 30 29 28 26 25 24 22 20 18 16 15 13 12 10 9 8 8 7 6 6 5 5
Wind_Direction
299 299 299 299 299 299 300 300 299 299 298 298 297 297 296 296 296 296 296 295 295 294 293 292 291 290 289 288 286 285 285 284 283 282 281 279 278 277
299 299 299 299 299 299 299 299 299 299 299 299 298 297 297 296 296 296 296 296 295 294 293 292 291 290 289 288 287 286 286 285 284 283 282 281 279 278
300 299 299 299 299 299 299 299 299 299 299 299 299 298 298 297 297 297 297 296 296 295 293 292 291 290 289 289 288 287 287 287 286 285 283 282 281 280
300 300 300 299 299 299 299 299 299 299 299 299 299 299 298 298 297 297 297 297 297 295 294 293 291 291 290 290 289 289 289 288 288 287 285 283 282 281
300 300 300 300 299 299 299 299 299 299 299 300 299 299 299 298 298 298 298 297 297 296 295 294 293 292 292 291 290 290 290 289 289 288 286 285 283 281
301 301 300 300 300 300 300 300 300 300 300 300 300 300 299 299 299 298 298 298 297 296 295 295 294 293 292 292 291 291 291 290 289 288 286 284 283 281
301 302 301 301 301 301 301 301 301 301 301 301 301 300 300 300 300 299 299 298 298 297 296 295 294 294 293 293 292 292 291 290 289 288 286 284 283 281
302 302 302 302 302 302 302 302 302 302 301 301 301 301 301 301 301 300 299 299 298 297 296 296 295 294 294 294 293 292 292 291 290 288 286 285 283 281
303 303 303 303 303 303 302 302 302 302 302 302 302 303 303 302 301 300 300 299 299 298 298 297 296 296 295 294 294 293 292 291 290 288 286 285 283 281
303 303 303 303 303 303 303 303 303 303 303 303 304 304 303 303 302 301 300 300 300 300 299 299 298 298 297 295 294 293 292 291 289 288 287 285 283 281
303 304 304 304 304 304 304 304 304 304 305 305 305 305 304 303 303 302 302 301 301 301 300 300 300 299 297 296 294 293 292 291 290 288 287 286 284 281
304 304 305 305 305 305 305 305 305 306 306 306 306 305 305 304 304 303 303 303 303 302 302 302 301 300 298 296 295 294 292 291 290 289 288 285 282 279
305 305 305 305 305 305 306 306 307 307 307 307 307 306 306 305 304 303 303 304 304 305 304 303 302 301 299 297 296 295 293 291 290 288 287 284 281 279
306 306 306 306 306 306 307 307 307 308 308 308 308 307 306 306 305 304 304 304 305 305 305 304 302 300 299 298 297 296 294 292 289 287 285 283 280 279
306 306 306 307 307 307 307 307 308 308 308 308 308 308 307 307 306 305 305 305 305 305 305 304 303 301 300 300 299 297 295 292 289 287 284 281 279 277
306 307 307 307 308 308 308 308 308 308 308 308 308 308 308 307 306 306 305 305 305 306 306 305 304 303 302 301 300 298 295 292 289 286 283 281 278 276
307 307 308 308 308 309 309 309 309 309 309 309 308 308 308 308 307 306 305 305 305 305 305 304 303 302 302 302 301 298 294 291 288 284 282 279 277 276
308 308 309 309 309 309 309 309 309 309 309 309 309 308 308 308 307 306 306 305 305 305 304 303 303 302 302 303 301 298 293 288 286 282 277 275 276 277
308 308 308 309 309 309 309 310 310 310 310 309 309 309 308 307 307 306 306 306 305 304 304 304 303 303 301 301 299 296 291 287 283 278 274 274 275 275
308 308 308 309 309 309 310 310 310 310 310 309 308 308 308 308 307 306 306 306 305 304 304 304 303 302 300 299 297 293 289 283 278 275 274 275 274 273
308 308 308 309 310 310 311 311 310 310 310 309 309 308 308 308 307 307 307 306 305 305 304 303 302 300 299 298 294 289 285 280 273 270 270 269 269 268
308 308 308 309 310 311 312 312 311 311 311 310 309 309 309 308 308 307 307 306 305 304 303 302 300 297 296 293 289 284 280 275 270 267 264 262 262 258
308 309 309 310 311 312 313 312 312 311 311 310 309 308 308 308 307 306 306 305 304 304 303 300 296 293 290 287 284 280 275 269 263 258 254 254 253 251
Height
5686 5681 5676 5671 5666 5661 5656 5650 5645 5641 5638 5632 5626 5620 5614 5608 5603 5597 5592 5587 5581 5576 5570 5565 5559 5554 5550 5545 5541 5537 5533 5529 5526 5522 5519 5516 5513 5511
5675 5670 5665 5660 5655 5650 5644 5639 5633 5628 5624 5620 5613 5607 5600 5594 5588 5582 5577 5571 5565 5559 5553 5547 5541 5536 5531 5527 5522 5518 5514 5509 5505 5502 5498 5495 5492 5488
5665 5660 5654 5649 5644 5638 5633 5627 5621 5615 5610 5606 5599 5593 5586 5579 5573 5566 5560 5553 5547 5541 5534 5528 5523 5517 5512 5507 5503 5498 5493 5489 5484 5480 5476 5472 5469 5466
5654 5648 5643 5637 5632 5626 5620 5614 5608 5602 5596 5591 5585 5578 5571 5564 5557 5550 5543 5536 5529 5522 5515 5509 5504 5498 5493 5488 5482 5477 5472 5467 5462 5458 5454 5450 5446 5443
5642 5637 5631 5625 5619 5613 5607 5601 5595 5588 5581 5576 5570 5562 5555 5548 5540 5533 5525 5518 5511 5503 5497 5490 5485 5479 5473 5468 5463 5457 5452 5447 5442 5437 5433 5428 5424 5421
5631 5625 5619 5613 5606 5600 5594 5587 5580 5574 5567 5560 5554 5547 5539 5531 5522 5515 5507 5500 5493 5485 5478 5472 5466 5460 5454 5449 5443 5438 5432 5427 5422 5417 5412 5408 5405 5401
5619 5613 5606 5600 5593 5586 5580 5573 5566 5558 5551 5544 5537 5530 5522 5513 5505 5496 5489 5482 5475 5467 5460 5454 5447 5441 5435 5429 5423 5418 5413 5407 5402 5398 5393 5389 5386 5383
5606 5600 5593 5587 5580 5573 5566 5558 5551 5543 5535 5528 5520 5512 5504 5495 5486 5478 5470 5463 5457 5451 5442 5436 5428 5422 5416 5410 5404 5399 5394 5389 5384 5380 5376 5372 5369 5366
5594 5587 5580 5574 5566 5559 5552 5544 5536 5527 5519 5511 5503 5494 5486 5478 5469 5461 5453 5445 5439 5431 5423 5418 5410 5403 5397 5391 5385 5380 5375 5371 5367 5363 5359 5356 5353 5350
5581 5574 5567 5560 5552 5544 5537 5529 5520 5512 5504 5494 5486 5477 5468 5459 5450 5443 5435 5428 5421 5413 5405 5399 5392 5385 5379 5373 5368 5363 5358 5354 5351 5348 5344 5341 5338 5336
5568 5560 5553 5545 5538 5530 5522 5514 5505 5496 5487 5478 5469 5459 5450 5442 5433 5425 5418 5410 5405 5398 5389 5381 5375 5368 5362 5357 5352 5347 5343 5340 5337 5334 5331 5328 5326 5323
5554 5546 5539 5531 5523 5514 5506 5498 5489 5480 5471 5462 5453 5444 5435 5426 5417 5408 5401 5394 5387 5382 5374 5366 5359 5353 5349 5344 5338 5334 5330 5327 5324 5322 5319 5317 5314 5313
5539 5532 5524 5516 5507 5499 5490 5482 5473 5464 5455 5446 5437 5428 5419 5410 5402 5393 5386 5379 5372 5366 5359 5352 5346 5339 5334 5331 5327 5322 5319 5316 5313 5310 5308 5306 5305 5303
5525 5517 5509 5501 5493 5484 5475 5467 5458 5449 5440 5431 5422 5413 5404 5395 5387 5379 5372 5365 5358 5352 5345 5339 5333 5328 5323 5320 5316 5312 5308 5305 5302 5300 5298 5297 5296 5295
5510 5502 5494 5486 5478 5469 5461 5452 5443 5434 5425 5416 5407 5398 5389 5381 5373 5366 5359 5352 5346 5339 5333 5327 5322 5317 5313 5309 5306 5302 5298 5296 5293 5292 5290 5289 5289 5288
5496 5488 5480 5471 5463 5455 5446 5437 5428 5419 5410 5401 5392 5383 5375 5367 5360 5353 5346 5340 5334 5329 5323 5317 5312 5308 5304 5300 5297 5293 5290 5288 5287 5285 5284 5283 5282 5282
5481 5473 5465 5457 5448 5440 5431 5422 5413 5404 5395 5386 5377 5369 5362 5354 5347 5341 5335 5329 5324 5319 5314 5309 5304 5300 5296 5293 5289 5286 5284 5282 5281 5280 5279 5278 5277 5277
5466 5458 5450 5442 5434 5425 5416 5407 5398 5389 5380 5372 5364 5356 5349 5342 5335 5329 5324 5319 5314 5309 5305 5300 5296 5292 5289 5286 5283 5281 5278 5277 5276 5275 5274 5274 5274 5273
5451 5443 5435 5427 5419 5410 5401 5392 5383 5375 5366 5358 5351 5343 5337 5330 5324 5319 5314 5309 5305 5301 5297 5293 5289 5285 5283 5280 5278 5275 5274 5272 5272 5271 5271 5271 5270 5270
5437 5429 5421 5412 5404 5395 5386 5378 5369 5361 5353 5345 5338 5332 5326 5320 5315 5310 5305 5301 5297 5293 5289 5286 5283 5279 5277 5275 5273 5271 5270 5269 5268 5268 5268 5268 5268 5267
5422 5414 5406 5397 5389 5381 5372 5364 5356 5348 5340 5333 5327 5321 5316 5310 5306 5301 5297 5293 5289 5286 5283 5280 5276 5274 5272 5270 5269 5268 5266 5266 5265 5265 5265 5265 5265 5265
5407 5399 5391 5383 5375 5366 5358 5350 5343 5336 5329 5322 5317 5311 5306 5302 5297 5293 5289 5286 5282 5279 5276 5273 5271 5269 5267 5266 5265 5264 5264 5263 5262 5262 5263 5263 5263 5263
5392 5384 5376 5369 5361 5353 5345 5338 5331 5325 5318 5312 5307 5303 5298 5294 5290 5286 5282 5279 5276 5273 5270 5268 5266 5264 5263 5262 5261 5261 5261 5260 5260 5260 5261 5261 5261 5261